DW9722 Weather Reports


time (UTC)temp
C
wind
direction
speed
KPH
gust
KPH
rain 1hr
cm
rain 24hr
cm
rain mn
cm
humidity
%
barometer
mb
20260505124541 15 169 0.0 0.0 0.00 0.43 0.05 1 1003.9
20260505123039 14 169 0.0 0.0 0.00 0.43 0.05 1 1004.0
20260505121527 14 208 0.0 0.0 0.03 0.43 0.05 1 1004.3
20260505120023 14 208 0.0 0.0 0.03 0.43 0.05 1 1004.2
20260505114518 15 220 0.0 0.0 0.03 0.43 0.05 1 1004.2
20260505113013 15 267 0.0 0.0 0.03 0.43 0.05 1 1004.2
20260505111512 15 223 0.0 0.0 0.00 0.41 0.05 1 1004.3
20260505101520 16 243 0.0 0.0 0.00 0.41 0.05 1 1004.3
20260505091612 14 210 0.0 0.0 0.00 0.41 0.05 1 1004.4
20260505090039 14 235 0.0 0.0 0.00 0.41 0.05 1 1004.2
20260505084530 14 206 0.0 0.0 0.00 0.41 0.05 1 1004.1
20260505083025 14 168 0.0 0.0 0.00 0.41 0.05 1 1004.1
20260505081531 13 173 0.0 0.0 0.00 0.43 0.05 1 1004.2
20260505080019 13 136 0.0 0.0 0.00 0.43 0.05 1 1004.1
20260505074510 13 136 0.0 0.0 0.00 0.43 0.05 1 1004.2
20260505073009 13 136 0.0 0.0 0.00 0.43 0.05 1 1004.2
20260505071504 13 164 0.0 0.0 0.00 0.56 0.05 1 1004.2
20260505070111 13 205 0.0 0.0 0.00 0.56 0.05 1 1004.2
20260505070021 13 155 0.0 0.0 0.00 0.56 0.05 1 1004.2
20260505064555 12 214 0.0 0.0 0.00 0.56 0.05 1 1004.2
20260505063045 12 178 0.0 0.0 0.00 0.56 0.05 1 1004.2
20260505061540 12 104 0.0 0.0 0.00 0.79 0.05 1 1004.3
20260505060036 11 158 0.0 0.0 0.00 0.79 0.05 1 1004.3
20260505054517 11 119 0.0 0.0 0.00 0.79 0.05 1 1004.2
20260505053012 11 184 0.0 0.0 0.00 0.79 0.05 1 1004.2
20260505051541 11 84 0.0 0.0 0.00 1.07 0.05 1 1004.1
20260505041519 11 87 0.0 0.0 0.05 1.32 0.05 1 1004.6
20260505040023 11 70 0.0 0.0 0.05 1.32 0.05 1 1004.7
20260505034507 11 88 0.0 0.0 0.08 1.32 0.05 1 1004.9
20260505033002 11 88 0.0 0.0 0.05 1.30 0.03 1 1004.9
20260505031559 11 88 0.0 0.0 0.05 1.27 1.27 1 1004.9
20260505030052 11 88 0.0 0.0 0.08 1.27 1.27 1 1005.0
20260505024548 11 88 0.0 0.0 0.05 1.24 1.24 1 1005.1
20260505023019 11 88 0.0 0.0 0.05 1.24 1.24 1 1005.4
20260505021513 11 88 0.0 0.0 0.05 1.22 1.22 1 1005.2
20260505020008 11 90 0.0 0.0 0.05 1.19 1.19 1 1005.4
20260505014506 11 90 0.0 0.0 0.05 1.19 1.19 1 1005.5
20260505013057 11 90 0.0 0.0 0.05 1.17 1.17 1 1005.6
20260505011555 11 90 0.0 0.0 0.13 1.17 1.17 1 1005.7
20260505010112 11 90 0.0 0.0 0.13 1.17 1.17 1 1005.9
20260505004543 11 90 0.0 0.0 0.10 1.14 1.14 1 1006.1
20260505003036 11 90 0.0 0.0 0.08 1.09 1.09 1 1006.2
20260505001532 12 90 0.0 0.0 0.05 1.07 1.07 1 1006.4
20260505000029 12 109 0.0 0.0 0.08 1.04 1.04 1 1006.5
20260504234523 12 109 0.0 0.0 0.10 1.04 1.04 1 1006.6
20260504233017 12 113 0.0 0.0 0.08 0.99 0.99 1 1006.7
20260504231516 12 107 0.0 0.0 0.05 0.99 0.99 1 1006.7
20260504230016 13 158 0.0 0.0 0.05 0.97 0.97 1 1006.7
20260504224515 13 185 0.0 0.0 0.03 0.94 0.94 1 1006.7
20260504223011 13 157 0.0 0.0 0.00 0.91 0.91 1 1006.6
20260504221524 12 169 0.0 0.0 0.00 0.91 0.91 1 1006.8
20260504220005 12 215 0.0 0.0 0.00 0.91 0.91 1 1006.9
20260504214506 12 215 0.0 0.0 0.00 0.91 0.91 1 1006.9
20260504213029 12 215 0.0 0.0 0.00 0.91 0.91 1 1006.8
20260504211556 12 215 0.0 0.0 0.00 0.91 0.91 1 1007.0
20260504210016 13 215 0.0 0.0 0.00 0.91 0.91 1 1007.1
20260504204513 13 215 0.0 0.0 0.00 0.91 0.91 1 1007.2
20260504203011 13 215 0.0 0.0 0.00 0.91 0.91 1 1007.2
20260504201503 12 26 0.0 0.0 0.00 0.91 0.91 1 1007.2
20260504200100 13 26 0.0 0.0 0.00 0.91 0.91 1 1007.1
20260504194551 13 143 0.0 0.0 0.00 0.91 0.91 1 1006.9
20260504193047 13 92 0.0 0.0 0.00 0.91 0.91 1 1006.9
20260504191553 13 138 0.0 0.0 0.00 0.91 0.91 1 1006.9
20260504190012 13 94 0.0 0.0 0.00 0.91 0.91 1 1006.8
20260504184511 13 360 0.0 0.0 0.00 0.91 0.91 1 1006.9
20260504183049 13 78 0.0 0.0 0.00 0.91 0.91 1 1007.0
20260504181545 14 88 0.0 0.0 0.00 0.91 0.91 1 1007.2
20260504180030 14 117 0.0 0.0 0.00 0.91 0.91 1 1007.1
20260504180012 14 92 0.0 0.0 0.00 0.91 0.91 1 1007.1
20260504174559 15 143 0.0 0.0 0.00 0.91 0.91 1 1007.2
20260504173018 15 117 0.0 0.0 0.00 0.91 0.91 1 1007.3
20260504171514 15 141 0.0 0.0 0.00 0.91 0.91 1 1007.3
20260504150138 15 159 0.0 0.0 0.00 0.91 0.91 1 1007.9